Ellensburg, WA
on Saturday, December 29, 2012

Saturday
Previous Day Next Day
Daily Summary
 ActualAverage (KYKM)Record (KYKM)
Temperature
Mean Temperature °F 28°F  
Max Temperature 30°F 35°F 59°F (1998)
Min Temperature 24°F 21°F -16°F (1990)
Degree Days
Heating Degree Days 38 37  
Month to date heating degree days 1054  
Since 1 July heating degree days 2587  
Cooling Degree Days 0 0  
Month to date cooling degree days 0  
Year to date cooling degree days 472  
Moisture
Dew Point 23°F   
Average Humidity 81    
Maximum Humidity 86    
Minimum Humidity 72    
Precipitation
Precipitation 0.03 in 0.04 in 1.26 in (1996)
Month to date precipitation 1.44  
Year to date precipitation 8.16  
Snow
Snow 0.00 in 0.30 in 12.00 in (1996)
Month to date snowfall 8.9  
Year to date snowfall 21.1  
Since 1 July snowfall 12.5  
Snow Depth in   
Wind
Wind Speed 1 mph   
Max Wind Speed 5 mph   
Max Gust Speed mph   
Visibility 6 miles   
Events Snow   

Key: T is trace of precipitation, MM is missing value
Source: NWS Daily Summary
Time(PST)TemperatureDew PointHumidity Pressure Visibility Wind DirectionWind SpeedGust SpeedPrecipitationEvents Conditions
1:05 AM 26.6°F 21.2°F 80% 30.19 in 10.0 miles Calm Calm - N/A   Overcast
1:53 AM 27.0°F 21.9°F 81% 30.25 in 9.0 miles Calm Calm - N/A   Overcast
2:53 AM 27.0°F 21.9°F 81% 30.25 in 10.0 miles Calm Calm - N/A   Overcast
4:53 AM 28.0°F 21.9°F 78% 30.24 in 8.0 miles Calm Calm - N/A   Overcast
5:53 AM 27.0°F 21.9°F 81% 30.23 in 10.0 miles Calm Calm - N/A   Overcast
6:53 AM 27.0°F 21.0°F 78% 30.23 in 10.0 miles Calm Calm - N/A   Overcast
7:53 AM 26.1°F 19.9°F 78% 30.23 in 10.0 miles ENE 3.5 mph - N/A   Overcast
8:11 AM 26.6°F 21.2°F 80% 30.16 in 10.0 miles East 4.6 mph - N/A   Overcast
8:53 AM 27.0°F 21.9°F 81% 30.23 in 10.0 miles Calm Calm - N/A   Overcast
9:05 AM 28.4°F 21.2°F 74% 30.16 in 8.0 miles East 4.6 mph - N/A   Overcast
9:43 AM 28.4°F 23.0°F 80% 30.17 in 2.5 miles East 3.5 mph - 0.00 in Snow Light Snow
9:53 AM 28.0°F 23.0°F 81% 30.23 in 1.8 miles ENE 3.5 mph - 0.00 in   Haze
10:16 AM 28.4°F 23.0°F 80% 30.16 in 2.0 miles Calm Calm - 0.00 in Snow Light Snow
10:27 AM 28.4°F 23.0°F 80% 30.17 in 1.5 miles Calm Calm - 0.00 in Snow Light Snow
10:33 AM 28.4°F 23.0°F 80% 30.16 in 2.0 miles Calm Calm - 0.00 in Snow Light Snow
10:49 AM 30.2°F 24.8°F 80% 30.16 in 1.5 miles Calm Calm - 0.00 in Snow Light Snow
10:53 AM 30.0°F 24.1°F 79% 30.21 in 2.0 miles Calm Calm - 0.00 in Snow Light Snow
11:01 AM 30.2°F 24.8°F 80% 30.15 in 2.0 miles Calm Calm - 0.00 in Snow Light Snow
11:10 AM 30.2°F 24.8°F 80% 30.15 in 2.5 miles Calm Calm - 0.00 in Snow Light Snow
11:20 AM 30.2°F 24.8°F 80% 30.14 in 2.0 miles Calm Calm - 0.00 in Snow Light Snow
11:28 AM 30.2°F 24.8°F 80% 30.13 in 2.5 miles Calm Calm - 0.00 in Snow Light Snow
11:35 AM 30.2°F 24.8°F 80% 30.13 in 3.0 miles Calm Calm - 0.00 in Snow Light Snow
11:53 AM 28.9°F 24.1°F 82% 30.18 in 3.0 miles Calm Calm - 0.02 in Snow Light Snow
11:56 AM 28.4°F 24.8°F 86% 30.12 in 2.5 miles Calm Calm - 0.00 in Snow Light Snow
12:11 PM 28.4°F 24.8°F 86% 30.11 in 3.0 miles Calm Calm - 0.00 in Snow Light Snow
12:46 PM 30.2°F 24.8°F 80% 30.10 in 10.0 miles Calm Calm - 0.00 in   Overcast
12:53 PM 30.0°F 24.1°F 79% 30.16 in 10.0 miles Calm Calm - 0.00 in   Overcast
1:53 PM 30.9°F 23.0°F 72% 30.14 in 10.0 miles Calm Calm - N/A   Overcast
3:21 PM 28.4°F 23.0°F 80% 30.08 in 10.0 miles Calm Calm - N/A   Overcast
3:48 PM 28.4°F 23.0°F 80% 30.09 in 1.8 miles SW 3.5 mph - 0.00 in Snow Light Snow
3:53 PM 28.9°F 24.1°F 82% 30.15 in 1.0 miles SW 4.6 mph - 0.00 in Snow Light Snow
4:03 PM 28.4°F 23.0°F 80% 30.09 in 1.8 miles WSW 3.5 mph - 0.00 in Snow Light Snow
4:08 PM 28.4°F 23.0°F 80% 30.09 in 2.0 miles Calm Calm - 0.00 in Snow Light Snow
4:16 PM 28.4°F 24.8°F 86% 30.09 in 1.5 miles Calm Calm - 0.00 in Snow Light Snow
4:30 PM 28.4°F 24.8°F 86% 30.09 in 2.5 miles Calm Calm - 0.00 in Snow Light Snow
4:37 PM 28.4°F 24.8°F 86% 30.10 in 5.0 miles Calm Calm - 0.00 in Snow Light Snow
4:53 PM 28.0°F 24.1°F 85% 30.16 in 5.0 miles Calm Calm - 0.00 in Snow Light Snow
5:34 PM 28.4°F 24.8°F 86% 30.11 in 2.0 miles Calm Calm - 0.00 in Snow Light Snow
5:46 PM 28.4°F 23.0°F 80% 30.11 in 4.0 miles West 3.5 mph - 0.00 in Snow Light Snow
5:53 PM 28.0°F 23.0°F 81% 30.17 in 4.0 miles West 3.5 mph - 0.00 in Snow Light Snow
5:58 PM 28.4°F 23.0°F 80% 30.12 in 1.8 miles West 3.5 mph - 0.00 in Snow Light Snow
6:16 PM 28.4°F 23.0°F 80% 30.12 in 3.0 miles West 3.5 mph - 0.00 in Snow Light Snow
6:53 PM 27.0°F 23.0°F 85% 30.19 in 4.0 miles Calm Calm - 0.00 in   Overcast
7:32 PM 24.8°F 21.2°F 86% 30.14 in 4.0 miles Calm Calm - 0.01 in   Overcast
7:53 PM 26.1°F 21.0°F 81% 30.21 in 6.0 miles Calm Calm - 0.01 in   Haze
8:53 PM 24.1°F 19.9°F 84% 30.22 in 10.0 miles Calm Calm - N/A   Overcast
9:53 PM 25.0°F 19.9°F 81% 30.24 in 10.0 miles Calm Calm - N/A   Overcast
10:46 PM 26.6°F 19.4°F 74% 30.19 in 10.0 miles North 3.5 mph - N/A   Overcast
10:53 PM 26.1°F 21.0°F 81% 30.25 in 10.0 miles NE 3.5 mph - N/A   Overcast
11:43 PM 24.8°F 19.4°F 80% 30.20 in 10.0 miles North 4.6 mph - N/A   Overcast
11:50 PM 26.6°F 21.2°F 80% 30.20 in 10.0 miles Calm Calm - N/A   Overcast
11:53 PM 26.1°F 21.0°F 81% 30.26 in 10.0 miles Calm Calm - N/A   Overcast
Moon Phase
Dec. 29 Jan. 04 Jan. 11 Jan. 18 Jan. 26
Sunrise:07:47 AM (PST) Moon Rise:06:06 PM (PST)12/29
Sunset:04:21 PM (PST) Moon Set:08:18 AM (PST)12/29

Copyright © 2014 The Weather Underground, Inc.